FW7000 Weather Reports


Display with metric or nautical units.
time (UTC)temp
F
wind
direction
speed
MPH
gust
MPH
rain 1hr
in
rain 24hr
in
rain mn
in
humidity
%
barometer
mb
20260906174531 80 100 0.0 0.0 0.00 0.00 0.00 53 1027.8
20260906174026 80 165 0.0 0.0 0.00 0.00 0.00 53 1027.7
20260906173521 80 139 0.0 0.0 0.00 0.00 0.00 52 1028.1
20260906173017 80 141 0.0 0.0 0.00 0.00 0.00 52 1027.9
20260906172516 80 129 0.0 0.0 0.00 0.00 0.00 51 1027.8
20260906172012 81 154 0.0 0.0 0.00 0.00 0.00 49 1028.1
20260906171507 81 155 0.0 0.0 0.00 0.00 0.00 49 1028.1
20260906171002 80 123 0.0 0.0 0.00 0.00 0.00 48 1027.8
20260906170458 80 126 0.0 0.0 0.00 0.00 0.00 53 1028.1
20260906165949 80 151 0.0 0.0 0.00 0.00 0.00 56 1028.1
20260906165448 78 168 0.0 0.0 0.00 0.00 0.00 58 1028.2
20260906164943 78 171 0.0 0.0 0.00 0.00 0.00 58 1028.3
20260906164442 78 136 0.0 0.0 0.00 0.00 0.00 58 1028.2
20260906163939 78 149 0.0 0.0 0.00 0.00 0.00 58 1028.4
20260906163434 77 167 0.0 0.0 0.00 0.00 0.00 63 1028.3
20260906162932 77 168 0.0 0.0 0.00 0.00 0.00 65 1028.4
20260906162431 77 168 0.0 0.0 0.00 0.00 0.00 65 1028.4
20260906161926 77 171 0.0 0.0 0.00 0.00 0.00 65 1028.2
20260906161426 76 171 0.0 0.0 0.00 0.00 0.00 65 1028.6
20260906160925 77 166 0.0 0.0 0.00 0.00 0.00 66 1028.4
20260906160418 77 168 0.0 0.0 0.00 0.00 0.00 69 1028.4
20260906155917 76 169 0.0 0.0 0.00 0.00 0.00 71 1028.5
20260906155410 76 170 0.0 0.0 0.00 0.00 0.00 71 1028.5
20260906154907 75 170 0.0 0.0 0.00 0.00 0.00 73 1028.8
20260906154402 74 165 0.0 0.0 0.00 0.00 0.00 73 1028.6
20260906153900 75 167 0.0 0.0 0.00 0.00 0.00 74 1028.5
20260906153359 74 167 0.0 0.0 0.00 0.00 0.00 75 1028.4
20260906152854 74 169 0.0 0.0 0.00 0.00 0.00 75 1028.5
20260906152349 74 168 0.0 0.0 0.00 0.00 0.00 75 1028.4
20260906151848 73 170 0.0 0.0 0.00 0.00 0.00 78 1028.5
20260906151344 74 169 0.0 0.0 0.00 0.00 0.00 79 1028.4
20260906150839 73 170 0.0 0.0 0.00 0.00 0.00 78 1028.5
20260906150329 73 168 0.0 0.0 0.00 0.00 0.00 78 1028.3
20260906145828 73 167 0.0 0.0 0.00 0.00 0.00 79 1028.6
20260906145327 72 167 0.0 0.0 0.00 0.00 0.00 80 1028.6
20260906144822 72 167 0.0 0.0 0.00 0.00 0.00 81 1028.4
20260906144317 72 147 0.0 0.0 0.00 0.00 0.00 80 1028.5
20260906143816 72 166 0.0 0.0 0.00 0.00 0.00 79 1028.4
20260906143314 72 166 0.0 0.0 0.00 0.00 0.00 80 1028.6
20260906142809 72 165 0.0 0.0 0.00 0.00 0.00 81 1028.5
20260906142306 72 170 0.0 0.0 0.00 0.00 0.00 82 1028.4
20260906141803 71 165 0.0 0.0 0.00 0.00 0.00 85 1028.2
20260906141257 71 166 0.0 0.0 0.00 0.00 0.00 85 1028.3
20260906140756 70 166 0.0 0.0 0.00 0.00 0.00 86 1028.5
20260906140251 70 167 0.0 0.0 0.00 0.00 0.00 86 1028.4
20260906135749 71 167 0.0 0.0 0.00 0.00 0.00 87 1028.3
20260906135244 70 166 0.0 0.0 0.00 0.00 0.00 89 1028.3
20260906134740 69 164 0.0 0.0 0.00 0.00 0.00 91 1028.2
20260906134235 68 168 0.0 0.0 0.00 0.00 0.00 92 1028.1
20260906133730 68 167 0.0 0.0 0.00 0.00 0.00 92 1028.1
20260906133225 68 166 0.0 0.0 0.00 0.00 0.00 92 1028.3
20260906132721 68 143 0.0 0.0 0.00 0.00 0.00 91 1028.3
20260906132216 69 169 0.0 0.0 0.00 0.00 0.00 90 1028.1
20260906131712 69 149 0.0 0.0 0.00 0.00 0.00 90 1027.9
20260906131207 69 160 0.0 0.0 0.00 0.00 0.00 89 1028.0
20260906130702 69 165 0.0 0.0 0.00 0.00 0.00 90 1027.7
20260906130157 69 165 0.0 0.0 0.00 0.00 0.00 91 1027.5
20260906125655 68 162 0.0 0.0 0.00 0.00 0.00 93 1027.7
20260906125154 67 166 0.0 0.0 0.00 0.00 0.00 94 1027.7
20260906124650 67 144 0.0 0.0 0.00 0.00 0.00 95 1027.5
20260906124144 66 153 0.0 0.0 0.00 0.00 0.00 96 1027.5
20260906123644 66 165 0.0 0.0 0.00 0.00 0.00 97 1028.0
20260906123139 66 163 0.0 0.0 0.00 0.00 0.00 97 1027.8
20260906122638 66 166 0.0 0.0 0.00 0.00 0.00 97 1027.8
20260906122134 66 156 0.0 0.0 0.00 0.00 0.00 97 1027.4
20260906121630 66 166 0.0 0.0 0.00 0.00 0.00 97 1027.7
20260906121126 66 165 0.0 0.0 0.00 0.00 0.00 98 1027.4
20260906120621 66 166 0.0 0.0 0.00 0.00 0.00 98 1027.2
20260906120119 66 164 0.0 0.0 0.00 0.00 0.00 98 1027.5
20260906115618 65 167 0.0 0.0 0.00 0.00 0.00 98 1027.3
20260906115113 65 165 0.0 0.0 0.00 0.00 0.00 98 1027.5
20260906114608 65 166 0.0 0.0 0.00 0.00 0.00 98 1027.2
20260906114103 65 168 0.0 0.0 0.00 0.00 0.00 98 1027.4
20260906113603 65 167 0.0 0.0 0.00 0.00 0.00 98 1027.2
20260906113057 65 168 0.0 0.0 0.00 0.00 0.00 98 1027.0
20260906112552 65 168 0.0 0.0 0.00 0.00 0.00 98 1027.4
20260906112048 65 168 0.0 0.0 0.00 0.00 0.00 98 1027.3
20260906111548 65 168 0.0 0.0 0.00 0.00 0.00 98 1027.4
20260906111043 65 168 0.0 0.0 0.00 0.00 0.00 98 1027.5
20260906110543 65 167 0.0 0.0 0.00 0.00 0.00 98 1027.4
20260906110042 65 168 0.0 0.0 0.00 0.00 0.00 98 1027.4
20260906105537 65 168 0.0 0.0 0.00 0.00 0.00 98 1027.5
20260906105033 65 168 0.0 0.0 0.00 0.00 0.00 98 1027.4
20260906104532 65 168 0.0 0.0 0.00 0.00 0.00 98 1027.4
20260906104026 65 168 0.0 0.0 0.00 0.00 0.00 98 1027.2
20260906103525 65 168 0.0 0.0 0.00 0.00 0.00 98 1027.2
20260906103020 65 168 0.0 0.0 0.00 0.00 0.00 98 1027.1
20260906102520 65 168 0.0 0.0 0.00 0.00 0.00 98 1027.0
20260906102015 65 168 0.0 0.0 0.00 0.00 0.00 98 1026.8
20260906101509 65 168 0.0 0.0 0.00 0.00 0.00 98 1026.9
20260906101004 65 168 0.0 0.0 0.00 0.00 0.00 98 1026.4
20260906100500 65 168 0.0 0.0 0.00 0.00 0.00 98 1026.6
20260906095954 65 168 0.0 0.0 0.00 0.00 0.00 97 1026.9
20260906095449 65 167 0.0 0.0 0.00 0.00 0.00 97 1026.7
20260906094944 65 168 0.0 0.0 0.00 0.00 0.00 97 1026.5
20260906094443 65 168 0.0 0.0 0.00 0.00 0.00 97 1026.7
20260906093939 65 168 0.0 0.0 0.00 0.00 0.00 97 1026.3
20260906093436 65 168 0.0 0.0 0.00 0.00 0.00 97 1026.4
20260906092935 65 168 0.0 0.0 0.00 0.00 0.00 97 1026.4
20260906092430 65 168 0.0 0.0 0.00 0.00 0.00 97 1026.5
20260906091925 66 168 0.0 0.0 0.00 0.00 0.00 97 1026.6
20260906091421 66 168 0.0 0.0 0.00 0.00 0.00 96 1026.6
20260906090917 66 168 0.0 0.0 0.00 0.00 0.00 96 1026.5
20260906090412 66 168 0.0 0.0 0.00 0.00 0.00 96 1026.4
20260906085907 66 168 0.0 0.0 0.00 0.00 0.00 96 1026.5
20260906085405 66 168 0.0 0.0 0.00 0.00 0.00 96 1026.3
20260906084900 66 168 0.0 0.0 0.00 0.00 0.00 96 1026.3
20260906084359 66 167 0.0 0.0 0.00 0.00 0.00 96 1026.0
20260906083854 66 168 0.0 0.0 0.00 0.00 0.00 96 1026.1
20260906083349 66 168 0.0 0.0 0.00 0.00 0.00 95 1026.2
20260906082849 67 168 0.0 0.0 0.00 0.00 0.00 95 1026.3
20260906082344 67 168 0.0 0.0 0.00 0.00 0.00 95 1026.1
20260906081841 67 168 0.0 0.0 0.00 0.00 0.00 95 1026.1
20260906081336 67 168 0.0 0.0 0.00 0.00 0.00 95 1026.2
20260906080832 67 168 0.0 0.0 0.00 0.00 0.00 95 1026.4
20260906080328 67 168 0.0 0.0 0.00 0.00 0.00 95 1026.2
20260906075827 67 168 0.0 0.0 0.00 0.00 0.00 95 1026.2
20260906075322 67 168 0.0 0.0 0.00 0.00 0.00 95 1026.6
20260906074818 67 168 0.0 0.0 0.00 0.00 0.00 94 1026.4
20260906074317 67 168 0.0 0.0 0.00 0.00 0.00 94 1026.4
20260906073816 68 168 0.0 0.0 0.00 0.00 0.00 94 1026.5
20260906073311 68 168 0.0 0.0 0.00 0.00 0.00 93 1026.6
20260906072808 68 168 0.0 0.0 0.00 0.00 0.00 93 1026.5
20260906072305 68 168 0.0 0.0 0.00 0.00 0.00 93 1026.7
20260906071758 68 168 0.0 0.0 0.00 0.00 0.00 93 1026.6
20260906071259 68 168 0.0 0.0 0.00 0.00 0.00 93 1026.5
20260906070755 68 168 0.0 0.0 0.00 0.00 0.00 93 1026.5
20260906070250 68 168 0.0 0.0 0.00 0.00 0.00 93 1026.5
20260906065749 68 169 0.0 0.0 0.00 0.00 0.00 93 1026.7
20260906065245 68 168 0.0 0.0 0.00 0.00 0.00 93 1026.7
20260906064735 68 168 0.0 0.0 0.00 0.00 0.00 93 1026.6
20260906064231 68 167 0.0 0.0 0.00 0.00 0.00 93 1026.9
20260906063725 68 168 0.0 0.0 0.00 0.00 0.00 93 1027.0
20260906063221 68 168 0.0 0.0 0.00 0.00 0.00 93 1026.9
20260906062716 69 168 0.0 0.0 0.00 0.00 0.00 92 1026.7
20260906062215 69 168 0.0 0.0 0.00 0.00 0.00 92 1026.8
20260906061712 69 168 0.0 0.0 0.00 0.00 0.00 91 1026.9
20260906061207 69 167 0.0 0.0 0.00 0.00 0.00 90 1026.9
20260906060703 70 168 0.0 0.0 0.00 0.00 0.00 89 1027.0
20260906060200 70 168 0.0 0.0 0.00 0.00 0.00 89 1026.7
20260906055655 70 169 0.0 0.0 0.00 0.00 0.00 89 1026.8
20260906055150 70 168 0.0 0.0 0.00 0.00 0.00 89 1026.9
20260906054646 70 168 0.0 0.0 0.00 0.00 0.00 89 1026.9
20260906054140 70 169 0.0 0.0 0.00 0.00 0.00 89 1026.9
20260906053637 70 169 0.0 0.0 0.00 0.00 0.00 89 1026.8
20260906053132 71 168 0.0 0.0 0.00 0.00 0.00 89 1026.6
20260906052627 71 169 0.0 0.0 0.00 0.00 0.00 88 1026.6
20260906052124 71 169 0.0 0.0 0.00 0.00 0.00 88 1026.9
20260906051620 70 169 0.0 0.0 0.00 0.00 0.00 89 1026.7
20260906051114 71 169 0.0 0.0 0.00 0.00 0.00 89 1026.9
20260906050610 71 168 0.0 0.0 0.00 0.00 0.00 89 1026.6
20260906050105 71 169 0.0 0.0 0.00 0.00 0.00 88 1026.7
20260906045603 71 168 0.0 0.0 0.00 0.00 0.00 88 1026.6
20260906045059 71 169 0.0 0.0 0.00 0.00 0.00 88 1026.8
20260906044554 71 169 0.0 0.0 0.00 0.00 0.00 90 1026.7
20260906044049 71 168 0.0 0.0 0.00 0.00 0.00 90 1026.6
20260906043545 71 169 0.0 0.0 0.00 0.00 0.00 89 1026.4
20260906043041 70 169 0.0 0.0 0.00 0.00 0.00 90 1026.2
20260906042540 70 168 0.0 0.0 0.00 0.00 0.00 91 1026.3
20260906042040 69 169 0.0 0.0 0.00 0.00 0.00 92 1026.6
20260906041536 69 169 0.0 0.0 0.00 0.00 0.00 93 1026.4
20260906041031 69 169 0.0 0.0 0.00 0.00 0.00 94 1026.3
20260906040526 68 169 0.0 0.0 0.00 0.00 0.00 94 1026.4
20260906040022 68 169 0.0 0.0 0.00 0.00 0.00 94 1026.1
20260906035517 68 169 0.0 0.0 0.00 0.00 0.00 94 1026.1
20260906035013 68 170 0.0 0.0 0.00 0.00 0.00 94 1026.1
20260906034512 68 169 0.0 0.0 0.00 0.00 0.00 94 1026.1
20260906034007 68 169 0.0 0.0 0.00 0.00 0.00 93 1025.9
20260906033502 68 169 0.0 0.0 0.00 0.00 0.00 93 1026.2
20260906032958 68 169 0.0 0.0 0.00 0.00 0.00 93 1026.1
20260906032454 69 170 0.0 0.0 0.00 0.00 0.00 93 1026.0
20260906031954 69 170 0.0 0.0 0.00 0.00 0.00 93 1026.0
20260906031450 69 170 0.0 0.0 0.00 0.00 0.00 92 1026.2
20260906030945 69 170 0.0 0.0 0.00 0.00 0.00 92 1026.4
20260906030439 69 170 0.0 0.0 0.00 0.00 0.00 92 1026.1
20260906025934 69 170 0.0 0.0 0.00 0.00 0.00 91 1026.0
20260906025428 69 169 0.0 0.0 0.00 0.00 0.00 91 1025.7
20260906024927 70 171 0.0 0.0 0.00 0.00 0.00 90 1025.8
20260906024427 70 170 0.0 0.0 0.00 0.00 0.00 90 1025.9
20260906023922 70 170 0.0 0.0 0.00 0.00 0.00 89 1025.8
20260906023418 70 168 0.0 0.0 0.00 0.00 0.00 89 1025.6
20260906022918 71 170 0.0 0.0 0.00 0.00 0.00 88 1025.4
20260906022413 71 169 0.0 0.0 0.00 0.00 0.00 87 1025.2
20260906021909 71 170 0.0 0.0 0.00 0.00 0.00 87 1025.2
20260906021408 71 172 0.0 0.0 0.00 0.00 0.00 86 1025.3
20260906020902 72 172 0.0 0.0 0.00 0.00 0.00 85 1025.1
20260906020357 72 171 0.0 0.0 0.00 0.00 0.00 85 1024.9
20260906015852 73 169 0.0 0.0 0.00 0.00 0.00 83 1024.9
20260906015351 73 169 0.0 0.0 0.00 0.00 0.00 82 1025.0
20260906014851 73 174 0.0 0.0 0.00 0.00 0.00 81 1024.5
20260906014351 73 174 0.0 0.0 0.00 0.00 0.00 81 1024.6
20260906013847 74 174 0.0 0.0 0.00 0.00 0.00 80 1024.2
20260906013343 74 174 0.0 0.0 0.00 0.00 0.00 79 1024.2
20260906012838 75 166 0.0 0.0 0.00 0.00 0.00 78 1024.0
20260906012332 75 172 0.0 0.0 0.00 0.00 0.00 78 1024.2
20260906011827 75 155 0.0 0.0 0.00 0.00 0.00 77 1024.0
20260906011321 75 163 0.0 0.0 0.00 0.00 0.00 76 1024.1
20260906010817 75 167 0.0 0.0 0.00 0.00 0.00 76 1024.0
20260906010314 76 170 0.0 0.0 0.00 0.00 0.00 76 1024.1
20260906005809 76 202 0.0 0.0 0.00 0.00 0.00 76 1024.0
20260906005307 76 185 0.0 0.0 0.00 0.00 0.00 76 1024.2
20260906004807 76 178 0.0 0.0 0.00 0.00 0.00 76 1023.8
20260906004307 76 149 0.0 0.0 0.00 0.00 0.00 76 1024.0
20260906003802 76 194 0.0 0.0 0.00 0.00 0.00 76 1024.2
20260906003257 77 182 0.0 0.0 0.00 0.00 0.00 75 1024.2
20260906002753 77 179 0.0 0.0 0.00 0.00 0.00 75 1024.2
20260906002252 77 176 0.0 0.0 0.00 0.00 0.00 75 1024.0
20260906001748 78 176 0.0 0.0 0.00 0.00 0.00 75 1023.9
20260906001247 78 194 0.0 0.0 0.00 0.00 0.00 75 1024.1
20260906000743 78 198 0.0 0.0 0.00 0.00 0.00 74 1023.9
20260906000238 78 209 0.0 0.0 0.00 0.00 0.00 74 1024.1
20260905235733 79 186 0.0 0.0 0.00 0.00 0.00 73 1024.1
20260905235227 79 182 0.0 0.0 0.00 0.00 0.00 73 1023.9
20260905234723 79 200 0.0 0.0 0.00 0.00 0.00 73 1024.0
20260905234218 80 206 0.0 0.0 0.00 0.00 0.00 72 1024.2
20260905233713 80 122 0.0 0.0 0.00 0.00 0.00 72 1024.0
20260905233212 80 172 0.0 0.0 0.00 0.00 0.00 71 1024.0
20260905232707 80 193 0.0 0.0 0.00 0.00 0.00 71 1024.2
20260905232203 81 123 0.0 0.0 0.00 0.00 0.00 70 1024.0
20260905231659 82 151 0.0 0.0 0.00 0.00 0.00 68 1023.7
20260905231154 82 218 0.0 0.0 0.00 0.00 0.00 68 1024.0
20260905230650 83 215 0.0 0.0 0.00 0.00 0.00 67 1024.0
20260905230148 83 177 0.0 0.0 0.00 0.00 0.00 64 1024.0
20260905225647 84 203 0.0 0.0 0.00 0.00 0.00 64 1023.8
20260905225142 83 207 0.0 0.0 0.00 0.00 0.00 65 1024.2
20260905224641 84 205 0.0 0.0 0.00 0.00 0.00 64 1023.9
20260905224136 84 183 0.0 0.0 0.00 0.00 0.00 63 1024.0
20260905223633 84 191 0.0 0.0 0.00 0.00 0.00 64 1024.2
20260905223130 84 187 0.0 0.0 0.00 0.00 0.00 63 1024.1
20260905222625 84 204 0.0 0.0 0.00 0.00 0.00 64 1024.5
20260905222120 84 203 0.0 0.0 0.00 0.00 0.00 61 1024.2
20260905221616 84 198 0.0 0.0 0.00 0.00 0.00 62 1024.6
20260905221112 84 224 0.0 0.0 0.00 0.00 0.00 61 1024.3
20260905220607 83 224 0.0 0.0 0.00 0.00 0.00 64 1024.4
20260905220104 84 223 0.0 0.0 0.00 0.00 0.00 63 1024.4
20260905215602 85 217 0.0 0.0 0.00 0.00 0.00 62 1024.4
20260905215058 83 210 0.0 0.0 0.00 0.00 0.00 63 1024.6
20260905214555 82 215 0.0 0.0 0.00 0.00 0.00 65 1024.5
20260905214054 84 213 0.0 0.0 0.00 0.00 0.00 63 1024.5
20260905213550 85 219 0.0 0.0 0.00 0.00 0.00 63 1024.8
20260905213045 86 212 0.0 0.0 0.00 0.00 0.00 61 1024.9
20260905212545 86 224 0.0 0.0 0.00 0.00 0.00 61 1024.7
20260905212045 85 226 0.0 0.0 0.00 0.00 0.00 62 1024.8
20260905211540 84 212 0.0 0.0 0.00 0.00 0.00 63 1024.7
20260905211036 84 218 0.0 0.0 0.00 0.00 0.00 63 1024.7
20260905210531 83 223 0.0 0.0 0.00 0.00 0.00 66 1024.7
20260905210026 82 221 0.0 0.0 0.00 0.00 0.00 67 1024.6
20260905205525 82 226 0.0 0.0 0.00 0.00 0.00 67 1024.6
20260905205025 84 228 0.0 0.0 0.00 0.00 0.00 64 1025.1
20260905204520 84 211 0.0 0.0 0.00 0.00 0.00 64 1024.9
20260905204015 85 239 0.0 0.0 0.00 0.00 0.00 63 1025.0
20260905203510 84 226 0.0 0.0 0.00 0.00 0.00 64 1025.1
20260905203005 83 243 0.0 0.0 0.00 0.00 0.00 67 1025.0
20260905202500 83 247 0.0 0.0 0.00 0.00 0.00 66 1025.3
20260905201956 82 227 0.0 0.0 0.00 0.00 0.00 67 1025.1
20260905201451 82 225 0.0 0.0 0.00 0.00 0.00 67 1025.2
20260905200950 81 227 0.0 0.0 0.00 0.00 0.00 71 1025.3
20260905200446 82 229 0.0 0.0 0.00 0.00 0.00 68 1025.4
20260905195944 82 229 0.0 0.0 0.00 0.00 0.00 67 1025.2
20260905195440 82 226 0.0 0.0 0.00 0.00 0.00 68 1025.1
20260905194936 80 224 0.0 0.0 0.00 0.00 0.00 72 1025.4
20260905194434 80 223 0.0 0.0 0.00 0.00 0.00 73 1025.2
20260905193929 80 241 0.0 0.0 0.00 0.00 0.00 73 1025.4
20260905193424 80 228 0.0 0.0 0.00 0.00 0.00 72 1025.1
20260905192919 80 227 0.0 0.0 0.00 0.00 0.00 73 1025.3
20260905192415 80 230 0.0 0.0 0.00 0.00 0.00 73 1025.3
20260905191914 80 219 0.0 0.0 0.00 0.00 0.00 72 1025.2
20260905191414 80 232 0.0 0.0 0.00 0.00 0.00 73 1025.2
20260905190908 80 234 0.0 0.0 0.00 0.00 0.00 73 1025.3
20260905190400 79 232 0.0 0.0 0.00 0.00 0.00 74 1025.0
20260905185859 80 232 0.0 0.0 0.00 0.00 0.00 72 1025.2
20260905185355 80 224 0.0 0.0 0.00 0.00 0.00 72 1024.9
20260905184853 79 221 0.0 0.0 0.00 0.00 0.00 74 1025.2
20260905184353 78 218 0.0 0.0 0.00 0.00 0.00 75 1025.0
20260905183851 79 221 0.0 0.0 0.00 0.00 0.00 75 1025.1
20260905183347 79 220 0.0 0.0 0.00 0.00 0.00 74 1025.2
20260905182842 78 220 0.0 0.0 0.00 0.00 0.00 76 1025.3
20260905182341 78 217 0.0 0.0 0.00 0.00 0.00 77 1025.5
20260905181836 79 215 0.0 0.0 0.00 0.00 0.00 76 1025.7
20260905181331 79 214 0.0 0.0 0.00 0.00 0.00 75 1025.4
20260905180829 79 217 0.0 0.0 0.00 0.00 0.00 77 1025.7
20260905180325 79 216 0.0 0.0 0.00 0.00 0.00 75 1025.7
20260905175820 79 232 0.0 0.0 0.00 0.00 0.00 76 1025.6
20260905175314 78 236 0.0 0.0 0.00 0.00 0.00 77 1025.4
20260905174809 79 228 0.0 0.0 0.00 0.00 0.00 77 1025.6